When you browse on this site, cookies collect data to enhance your experience and personalize the content and advertising you see.
Visit our Privacy Policy to learn more. By continuing to use the site, you agree to this use of cookies and data.
  • In Portugal
  • List of Countries
  • For 7 days
  • Water Temperature
  • Weather Map
  • Weather Widgets
  • user-avatar
    Login

    Hourly Weather Bansko

    Today, 4 June, Thursday

    Time Temperature Precipitation Wind Pressure Humidity
    00:00 +11°C° 0 mm 1 mps 715 mmHg 78%
    01:00 +11°C° 0 mm 1 mps 715 mmHg 78%
    02:00 +11°C° 0 mm 1 mps 715 mmHg 79%
    03:00 +11°C° 0 mm 1 mps 715 mmHg 79%
    04:00 +11°C° 0 mm 1 mps 715 mmHg 80%
    05:00 +11°C° 0 mm 1 mps 715 mmHg 81%
    06:00 +13°C° 0 mm 1 mps 715 mmHg 74%
    07:00 +15°C° 0 mm 1 mps 716 mmHg 68%
    08:00 +19°C° 0 mm 1 mps 716 mmHg 62%
    09:00 +19°C° 0 mm 2 mps 716 mmHg 57%
    10:00 +21°C° 0 mm 2 mps 717 mmHg 53%
    11:00 +22°C° 0 mm 3 mps 717 mmHg 48%
    12:00 +24°C° 0 mm 3 mps 717 mmHg 49%
    13:00 +24°C° 0 mm 3 mps 717 mmHg 49%
    14:00 +25°C° 0 mm 4 mps 716 mmHg 49%
    15:00 +23°C° 0.1 mm 4 mps 716 mmHg 52%
    16:00 +23°C° 0.1 mm 4 mps 716 mmHg 55%
    17:00 +22°C° 0.1 mm 3 mps 716 mmHg 58%
    18:00 +21°C° 0 mm 3 mps 716 mmHg 65%
    19:00 +19°C° 0 mm 3 mps 716 mmHg 72%
    20:00 +17°C° 0 mm 2 mps 716 mmHg 79%
    21:00 +16°C° 0 mm 2 mps 716 mmHg 80%
    22:00 +15°C° 0 mm 2 mps 716 mmHg 82%
    23:00 +15°C° 0 mm 2 mps 717 mmHg 83%

    Tomorrow, 5 June, Friday

    Time Temperature Precipitation Wind Pressure Humidity
    00:00 +15°C° 0 mm 2 mps 716 mmHg 84%
    01:00 +15°C° 0 mm 2 mps 716 mmHg 85%
    02:00 +14°C° 0 mm 2 mps 716 mmHg 87%
    03:00 +14°C° 0 mm 2 mps 716 mmHg 86%
    04:00 +14°C° 0 mm 2 mps 716 mmHg 86%
    05:00 +14°C° 0 mm 2 mps 716 mmHg 85%
    06:00 +16°C° 0 mm 2 mps 716 mmHg 78%
    07:00 +18°C° 0 mm 2 mps 716 mmHg 71%
    08:00 +20°C° 0 mm 2 mps 717 mmHg 64%
    09:00 +21°C° 0 mm 3 mps 717 mmHg 60%
    10:00 +23°C° 0 mm 4 mps 717 mmHg 55%
    11:00 +25°C° 0 mm 4 mps 717 mmHg 51%
    12:00 +25°C° 0 mm 4 mps 716 mmHg 50%
    13:00 +26°C° 0 mm 4 mps 716 mmHg 49%
    14:00 +26°C° 0 mm 5 mps 715 mmHg 48%
    15:00 +26°C° 0 mm 4 mps 715 mmHg 53%
    16:00 +25°C° 0 mm 4 mps 715 mmHg 57%
    17:00 +25°C° 0 mm 4 mps 715 mmHg 62%
    18:00 +22°C° 0 mm 3 mps 715 mmHg 69%
    19:00 +20°C° 0 mm 3 mps 715 mmHg 77%
    20:00 +18°C° 0 mm 2 mps 715 mmHg 85%
    21:00 +18°C° 0 mm 2 mps 715 mmHg 85%
    22:00 +17°C° 0 mm 2 mps 715 mmHg 84%
    23:00 +17°C° 0 mm 2 mps 716 mmHg 83%

    Day after tomorrow, 6 June, Saturday

    Time Temperature Precipitation Wind Pressure Humidity
    00:00 +16°C° 0.2 mm 1 mps 715 mmHg 84%
    01:00 +16°C° 0.2 mm 1 mps 715 mmHg 86%
    02:00 +16°C° 0.2 mm 1 mps 715 mmHg 87%
    03:00 +16°C° 0.7 mm 1 mps 715 mmHg 88%
    04:00 +15°C° 0.7 mm 1 mps 715 mmHg 90%
    05:00 +14°C° 0.7 mm 0 mps 715 mmHg 91%
    06:00 +16°C° 0.3 mm 1 mps 715 mmHg 89%
    07:00 +18°C° 0.3 mm 1 mps 716 mmHg 87%
    08:00 +19°C° 0.3 mm 1 mps 716 mmHg 85%
    09:00 +20°C° 0 mm 1 mps 716 mmHg 78%
    10:00 +21°C° 0 mm 1 mps 716 mmHg 72%
    11:00 +22°C° 0 mm 1 mps 716 mmHg 66%
    12:00 +22°C° 0.7 mm 1 mps 716 mmHg 66%
    13:00 +21°C° 0.7 mm 2 mps 716 mmHg 66%
    14:00 +23°C° 0.7 mm 2 mps 716 mmHg 66%
    15:00 +21°C° 0.7 mm 2 mps 715 mmHg 68%
    16:00 +21°C° 0.7 mm 2 mps 715 mmHg 70%
    17:00 +20°C° 0.7 mm 2 mps 715 mmHg 72%
    18:00 +19°C° 0.4 mm 2 mps 715 mmHg 78%
    19:00 +19°C° 0.4 mm 1 mps 715 mmHg 84%
    20:00 +16°C° 0.4 mm 1 mps 715 mmHg 89%
    21:00 +16°C° 0 mm 1 mps 715 mmHg 90%
    22:00 +15°C° 0 mm 1 mps 715 mmHg 90%
    23:00 +14°C° 0 mm 1 mps 716 mmHg 90%

    7 June, Sunday

    Time Temperature Precipitation Wind Pressure Humidity
    00:00 +14°C° 0 mm 1 mps 716 mmHg 90%
    01:00 +14°C° 0 mm 1 mps 715 mmHg 89%
    02:00 +12°C° 0 mm 0 mps 715 mmHg 89%
    03:00 +12°C° 0 mm 0 mps 716 mmHg 89%
    04:00 +12°C° 0 mm 0 mps 716 mmHg 89%
    05:00 +12°C° 0 mm 0 mps 716 mmHg 88%
    06:00 +14°C° 0 mm 0 mps 716 mmHg 84%
    07:00 +18°C° 0 mm 1 mps 717 mmHg 80%
    08:00 +20°C° 0 mm 1 mps 717 mmHg 76%
    09:00 +22°C° 0 mm 1 mps 717 mmHg 70%
    10:00 +24°C° 0 mm 1 mps 718 mmHg 64%
    11:00 +25°C° 0 mm 1 mps 718 mmHg 58%
    12:00 +26°C° 0.2 mm 2 mps 718 mmHg 57%
    13:00 +26°C° 0.2 mm 2 mps 717 mmHg 56%
    14:00 +27°C° 0.2 mm 2 mps 717 mmHg 56%
    15:00 +26°C° 0.5 mm 2 mps 717 mmHg 59%
    16:00 +26°C° 0.5 mm 2 mps 717 mmHg 61%
    17:00 +26°C° 0.5 mm 2 mps 716 mmHg 64%
    18:00 +24°C° 0.3 mm 2 mps 717 mmHg 71%
    19:00 +22°C° 0.3 mm 1 mps 717 mmHg 78%
    20:00 +20°C° 0.3 mm 1 mps 717 mmHg 85%
    21:00 +20°C° 0 mm 1 mps 717 mmHg 85%
    22:00 +19°C° 0 mm 1 mps 717 mmHg 85%
    23:00 +18°C° 0 mm 1 mps 717 mmHg 85%

    8 June, Monday

    Time Temperature Precipitation Wind Pressure Humidity
    00:00 +18°C° 0 mm 1 mps 717 mmHg 85%
    01:00 +18°C° 0 mm 1 mps 717 mmHg 85%
    02:00 +15°C° 0 mm 0 mps 717 mmHg 85%
    03:00 +15°C° 0 mm 0 mps 717 mmHg 85%
    04:00 +15°C° 0 mm 0 mps 717 mmHg 86%
    05:00 +15°C° 0 mm 0 mps 717 mmHg 86%
    06:00 +17°C° 0 mm 0 mps 717 mmHg 82%
    07:00 +18°C° 0 mm 0 mps 718 mmHg 78%
    08:00 +22°C° 0 mm 1 mps 718 mmHg 75%
    09:00 +24°C° 0 mm 1 mps 718 mmHg 70%
    10:00 +25°C° 0 mm 1 mps 718 mmHg 65%
    11:00 +27°C° 0 mm 1 mps 718 mmHg 60%
    12:00 +27°C° 0.2 mm 1 mps 718 mmHg 58%
    13:00 +28°C° 0.2 mm 2 mps 718 mmHg 55%
    14:00 +28°C° 0.2 mm 2 mps 717 mmHg 53%
    15:00 +28°C° 0.2 mm 2 mps 717 mmHg 54%
    16:00 +27°C° 0.2 mm 2 mps 717 mmHg 56%
    17:00 +27°C° 0.2 mm 2 mps 717 mmHg 57%
    18:00 +25°C° 0.1 mm 2 mps 717 mmHg 64%
    19:00 +23°C° 0.1 mm 1 mps 717 mmHg 72%
    20:00 +21°C° 0.1 mm 1 mps 716 mmHg 79%
    21:00 +20°C° 0.1 mm 1 mps 717 mmHg 80%
    22:00 +20°C° 0.1 mm 1 mps 717 mmHg 81%
    23:00 +19°C° 0.1 mm 1 mps 717 mmHg 82%

    9 June, Tuesday

    Time Temperature Precipitation Wind Pressure Humidity
    00:00 +19°C° 0.2 mm 1 mps 717 mmHg 83%
    01:00 +18°C° 0.2 mm 1 mps 717 mmHg 84%
    02:00 +18°C° 0.2 mm 1 mps 717 mmHg 84%
    03:00 +18°C° 0 mm 1 mps 717 mmHg 85%
    04:00 +16°C° 0 mm 1 mps 717 mmHg 85%
    05:00 +16°C° 0 mm 1 mps 717 mmHg 86%
    06:00 +19°C° 0 mm 1 mps 717 mmHg 81%
    07:00 +21°C° 0 mm 1 mps 718 mmHg 77%
    08:00 +23°C° 0 mm 1 mps 718 mmHg 73%
    09:00 +24°C° 0.5 mm 1 mps 718 mmHg 68%
    10:00 +25°C° 0.5 mm 1 mps 718 mmHg 63%
    11:00 +26°C° 0.5 mm 1 mps 718 mmHg 58%
    12:00 +27°C° 0.6 mm 1 mps 718 mmHg 56%
    13:00 +27°C° 0.6 mm 1 mps 718 mmHg 54%
    14:00 +28°C° 0.6 mm 1 mps 718 mmHg 52%
    15:00 +27°C° 0.5 mm 1 mps 717 mmHg 54%
    16:00 +27°C° 0.5 mm 1 mps 717 mmHg 56%
    17:00 +27°C° 0.5 mm 1 mps 717 mmHg 58%
    18:00 +25°C° 0.4 mm 1 mps 717 mmHg 64%
    19:00 +23°C° 0.4 mm 1 mps 717 mmHg 70%
    20:00 +21°C° 0.4 mm 1 mps 717 mmHg 76%
    21:00 +20°C° 0.4 mm 1 mps 717 mmHg 78%
    22:00 +20°C° 0.4 mm 1 mps 717 mmHg 80%
    23:00 +19°C° 0.4 mm 1 mps 718 mmHg 82%
    Show more